Rawlins, WY

12:42 PM MDT on August 23, 2017 (GMT -0600)
Rawlins Municipal

Weather History for KRWL - March, 2013

Change the Weather History Date:

Saturday, March 16, 2013

  Actual Average Record
Temperature  
Mean Temperature 40 °F 32 °F  
Max Temperature 54 °F 44 °F 64 °F (2012)
Min Temperature 26 °F 21 °F -9 °F (2002)
Degree Days  
Heating Degree Days 25 33  
Month to date heating degree days 472 558  
Since 1 July heating degree days 6073 6515  
Cooling Degree Days 0 0  
Month to date cooling degree days 0 0  
Year to date cooling degree days 0 0  
Moisture  
Dew Point 13 °F    
Average Humidity 39    
Maximum Humidity 69    
Minimum Humidity 10    
Precipitation  
Precipitation 0.00 in 0.02 in 0.26 in (1966)
Month to date precipitation 0.01 0.30  
Year to date precipitation 0.59 1.08  
Sea Level Pressure  
Sea Level Pressure 29.81 in    
Wind  
Wind Speed 12 mph (West)    
Max Wind Speed 31 mph    
Max Gust Speed 38 mph    
Visibility 10 miles    
Events      
T = Trace of Precipitation, MM = Missing Value Source: NWS Daily Summary

Daily Weather History Graph

Daily Weather History Graph

Search for Another Location

Airport or City:

Trip Planner

Search our weather history database for the weather conditions in past years. The results will help you decide how hot, cold, wet, or windy it might be!

Date:

Astronomy

Mar. 16, 2013 Rise Set
Actual Time 7:18 AM MDT 7:16 PM MDT
Civil Twilight 6:50 AM MDT 7:44 PM MDT
Nautical Twilight 6:18 AM MDT 8:17 PM MDT
Astronomical Twilight 5:45 AM MDT 8:50 PM MDT
Moon 9:45 AM MDT (3/16) No Moon Set
Length of Visible Light 12h 53m
Length of Day
11h 58m
Waxing Crescent, 23% of the Moon is Illuminated
Mar 16
Waxing Crescent
Mar 19
First Quarter
Mar 27
Full
Apr 2
Last Quarter
Apr 10
New

Hourly Weather History & Observations

Time (MDT) Temp. Windchill Dew Point Humidity Pressure Visibility Wind Dir Wind Speed Gust Speed Precip Events Conditions
12:53 AM 34.0 °F 26.6 °F 19.9 °F 56% 29.88 in 10.0 mi WNW 9.2 mph - N/A   Clear
1:53 AM 30.0 °F - 19.0 °F 64% 29.88 in 10.0 mi Calm Calm - N/A   Clear
2:53 AM 28.0 °F 21.7 °F 18.0 °F 66% 29.89 in 10.0 mi NNW 5.8 mph - N/A   Clear
3:53 AM 26.1 °F 21.9 °F 17.1 °F 69% 29.88 in 10.0 mi North 3.5 mph - N/A   Clear
4:53 AM 28.9 °F - 19.0 °F 67% 29.86 in 10.0 mi Calm Calm - N/A   Clear
5:53 AM 28.9 °F 23.9 °F 19.9 °F 69% 29.86 in 10.0 mi North 4.6 mph - N/A   Clear
6:53 AM 28.9 °F - 19.9 °F 69% 29.86 in 10.0 mi Calm Calm - N/A   Partly Cloudy
7:53 AM 30.0 °F - 21.0 °F 69% 29.86 in 10.0 mi Calm Calm - N/A   Mostly Cloudy
8:53 AM 37.9 °F 32.7 °F 23.0 °F 55% 29.82 in 10.0 mi SW 6.9 mph - N/A   Overcast
9:53 AM 43.0 °F 35.1 °F 21.9 °F 43% 29.79 in 10.0 mi WSW 17.3 mph - N/A   Partly Cloudy
10:53 AM 46.0 °F 38.3 °F 19.9 °F 35% 29.78 in 10.0 mi West 20.7 mph 33.4 mph N/A   Clear
11:53 AM 48.0 °F - 18.0 °F 30% 29.79 in 10.0 mi West 25.3 mph 31.1 mph N/A   Clear
12:53 PM 50.0 °F - 17.1 °F 27% 29.81 in 10.0 mi SW 20.7 mph 32.2 mph N/A   Clear
1:53 PM 53.1 °F - 9.0 °F 17% 29.78 in 10.0 mi West 25.3 mph 36.8 mph N/A   Partly Cloudy
2:53 PM 54.0 °F - -2.0 °F 10% 29.77 in 10.0 mi West 19.6 mph 29.9 mph N/A   Clear
3:53 PM 53.1 °F - -2.0 °F 10% 29.77 in 10.0 mi West 16.1 mph 32.2 mph N/A   Clear
4:53 PM 52.0 °F - -0.0 °F 12% 29.75 in 10.0 mi WNW 20.7 mph 28.8 mph N/A   Clear
5:53 PM 50.0 °F - 1.9 °F 14% 29.76 in 10.0 mi WNW 18.4 mph 31.1 mph N/A   Clear
6:53 PM 46.9 °F - 3.9 °F 17% 29.78 in 10.0 mi WNW 11.5 mph 20.7 mph N/A   Clear
7:53 PM 37.0 °F 31.0 °F 8.1 °F 30% 29.83 in 10.0 mi WNW 8.1 mph - N/A   Clear
8:53 PM 37.9 °F 30.0 °F 8.1 °F 29% 29.80 in 10.0 mi WSW 12.7 mph - N/A   Clear
9:53 PM 39.0 °F 30.6 °F 6.1 °F 26% 29.76 in 10.0 mi WSW 15.0 mph - N/A   Clear
10:53 PM 39.0 °F 31.0 °F 9.0 °F 29% 29.73 in 10.0 mi West 13.8 mph - N/A   Clear
11:53 PM 35.1 °F 27.9 °F 10.0 °F 35% 29.71 in 10.0 mi SSW 9.2 mph - N/A   Clear